Atmospheric History
12/06/2017 18:40  to  12/7/2017 18:40
Change End Date:
To complete the export process:
1) Select all of the data below
2) Copy the data to the clipboard
3) Open a word processor such as Notepad
4) Paste the data into the word processor
5) Save the file

Date/Time (MST), AirTemp, RH, Dewpoint ,AvgWindSpeed, GustWindSpeed, WindDirection, PrecipType, PrecipIntensity, PrecipAccumulation, PrecipRate
12/07/2017 18:35, 25, 75, 18 ,1, 4, W, None, None, ,  
12/07/2017 18:25, 25, 75, 18 ,1, 5, SW, None, None, ,  
12/07/2017 18:15, 25, 75, 18 ,2, 4, W, None, None, ,  
12/07/2017 18:15, 25, 75, 18 ,1, 4, W, None, None, ,  
12/07/2017 18:05, 25, 75, 18 ,1, 4, W, None, None, ,  
12/07/2017 17:55, 25, 75, 18 ,2, 4, W, None, None, ,  
12/07/2017 17:45, 25, 75, 18 ,2, 6, W, None, None, ,  
12/07/2017 17:45, 25, 75, 18 ,2, 6, W, None, None, ,  
12/07/2017 17:35, 25, 74, 18 ,1, 4, W, None, None, ,  
12/07/2017 17:25, 25, 75, 18 ,1, 3, SW, None, None, ,  
12/07/2017 17:15, 25, 74, 18 ,3, 6, W, None, None, ,  
12/07/2017 17:15, 25, 74, 18 ,3, 6, W, None, None, ,  
12/07/2017 17:05, 25, 74, 18 ,1, 4, SW, None, None, ,  
12/07/2017 16:55, 26, 74, 19 ,1, 4, W, None, None, ,  
12/07/2017 16:45, 26, 74, 18 ,1, 3, SW, None, None, ,  
12/07/2017 16:45, 26, 74, 19 ,1, 3, SW, None, None, ,  
12/07/2017 16:35, 26, 73, 19 ,2, 4, W, None, None, ,  
12/07/2017 16:25, 26, 73, 18 ,2, 4, W, None, None, ,  
12/07/2017 16:15, 26, 73, 19 ,3, 4, W, None, None, ,  
12/07/2017 16:15, 26, 73, 19 ,3, 6, W, None, None, ,  
12/07/2017 16:05, 26, 73, 19 ,2, 4, NW, None, None, ,  
12/07/2017 15:55, 26, 72, 19 ,1, 3, W, None, None, ,  
12/07/2017 15:45, 26, 73, 19 ,2, 7, W, None, None, ,  
12/07/2017 15:44, 26, 72, 19 ,2, 7, W, None, None, ,  
12/07/2017 15:34, 26, 73, 19 ,4, 6, W, None, None, ,  
12/07/2017 15:24, 26, 73, 19 ,4, 7, NW, None, None, ,  
12/07/2017 15:15, 26, 74, 19 ,4, 7, N, None, None, ,  
12/07/2017 15:14, 26, 74, 19 ,4, 7, NW, None, None, ,  
12/07/2017 15:04, 26, 74, 19 ,4, 6, N, None, None, ,  
12/07/2017 14:54, 26, 73, 19 ,2, 6, N, None, None, ,  
12/07/2017 14:45, 26, 72, 19 ,4, 7, NW, None, None, ,  
12/07/2017 14:44, 26, 73, 19 ,3, 7, NW, None, None, ,  
12/07/2017 14:34, 26, 72, 19 ,4, 7, NW, None, None, ,  
12/07/2017 14:24, 26, 72, 18 ,6, 9, NW, None, None, ,  
12/07/2017 14:17, 26, 72, 19 ,4, 7, NW, None, None, ,  
12/07/2017 14:14, 26, 72, 19 ,4, 9, NW, None, None, ,  
12/07/2017 14:04, 26, 71, 18 ,6, 9, NW, None, None, ,  
12/07/2017 13:54, 26, 71, 19 ,4, 10, NW, None, None, ,  
12/07/2017 13:45, 26, 71, 18 ,4, 9, N, None, None, ,  
12/07/2017 13:44, 26, 71, 18 ,4, 9, NW, None, None, ,  
12/07/2017 13:34, 26, 70, 18 ,4, 7, W, None, None, ,  
12/07/2017 13:24, 26, 72, 18 ,5, 9, NW, None, None, ,  
12/07/2017 13:15, 26, 72, 18 ,6, 9, N, None, None, ,  
12/07/2017 13:14, 26, 72, 18 ,6, 9, NW, None, None, ,  
12/07/2017 13:04, 26, 72, 18 ,4, 10, NW, None, None, ,  
12/07/2017 12:54, 26, 73, 19 ,5, 10, NW, None, None, ,  
12/07/2017 12:43, 26, 73, 19 ,4, 7, NW, None, None, ,  
12/07/2017 12:33, 26, 73, 18 ,4, 7, NW, None, None, ,  
12/07/2017 12:23, 26, 73, 19 ,4, 6, NW, None, None, ,  
12/07/2017 12:15, 26, 73, 19 ,2, 7, NW, None, None, ,  
12/07/2017 12:13, 26, 74, 19 ,2, 7, N, None, None, ,  
12/07/2017 12:03, 26, 73, 18 ,2, 6, W, None, None, ,  
12/07/2017 11:53, 25, 72, 18 ,4, 5, W, None, None, ,  
12/07/2017 11:45, 25, 74, 18 ,2, 4, NW, None, None, ,  
12/07/2017 11:43, 26, 74, 18 ,2, 4, N, None, None, ,  
12/07/2017 11:33, 25, 75, 18 ,2, 4, NW, None, None, ,  
12/07/2017 11:23, 25, 75, 18 ,1, 6, SW, None, None, ,  
12/07/2017 11:15, 24, 75, 18 ,2, 4, NW, None, None, ,  
12/07/2017 11:13, 24, 75, 18 ,2, 5, NW, None, None, ,  
12/07/2017 11:03, 24, 74, 17 ,4, 7, W, None, None, ,  
12/07/2017 10:53, 24, 73, 17 ,5, 7, W, None, None, ,  
12/07/2017 10:48, 24, 73, 17 ,3, 6, W, None, None, ,  
12/07/2017 10:43, 24, 73, 17 ,1, 6, W, None, None, ,  
12/07/2017 10:33, 24, 73, 17 ,3, 6, NW, None, None, ,  
12/07/2017 10:23, 23, 74, 17 ,1, 3, SE, None, None, ,  
12/07/2017 10:15, 23, 74, 17 ,1, 2, S, None, None, ,  
12/07/2017 10:13, 23, 74, 17 ,1, 2, SW, None, None, ,  
12/07/2017 10:02, 23, 75, 16 ,0, 4, S, None, None, ,  
12/07/2017 09:52, 22, 76, 16 ,2, 4, SE, None, None, ,  
12/07/2017 09:45, 22, 77, 16 ,1, 4, SE, None, None, ,  
12/07/2017 09:42, 22, 77, 16 ,2, 4, E, None, None, ,  
12/07/2017 09:32, 22, 77, 16 ,4, 6, SE, None, None, ,  
12/07/2017 09:22, 22, 77, 16 ,4, 8, SE, None, None, ,  
12/07/2017 09:12, 22, 78, 16 ,2, 4, SE, None, None, ,  
12/07/2017 09:02, 22, 78, 16 ,2, 4, SE, None, None, ,  
12/07/2017 08:52, 21, 78, 16 ,4, 6, SE, None, None, ,  
12/07/2017 08:45, 21, 78, 16 ,1, 6, E, None, None, ,  
12/07/2017 08:42, 21, 79, 16 ,1, 7, SE, None, None, ,  
12/07/2017 08:32, 21, 78, 16 ,6, 10, SE, None, None, ,  
12/07/2017 08:22, 21, 79, 16 ,5, 7, SE, None, None, ,  
12/07/2017 08:15, 21, 79, 16 ,4, 7, SE, None, None, ,  
12/07/2017 08:12, 21, 79, 16 ,4, 6, SE, None, None, ,  
12/07/2017 08:02, 21, 78, 16 ,3, 6, SE, None, None, ,  
12/07/2017 07:52, 21, 78, 15 ,6, 7, SE, None, None, ,  
12/07/2017 07:47, 21, 78, 15 ,5, 7, SE, None, None, ,  
12/07/2017 07:42, 21, 78, 15 ,5, 8, SE, None, None, ,  
12/07/2017 07:32, 21, 79, 15 ,5, 7, SE, None, None, ,  
12/07/2017 07:21, 21, 79, 15 ,4, 7, SE, None, None, ,  
12/07/2017 07:17, 21, 79, 15 ,6, 7, SE, None, None, ,  
12/07/2017 07:11, 21, 79, 15 ,2, 6, E, None, None, ,  
12/07/2017 07:01, 21, 79, 15 ,4, 6, SE, None, None, ,  
12/07/2017 06:51, 21, 79, 16 ,4, 7, SE, None, None, ,  
12/07/2017 06:41, 21, 79, 15 ,4, 7, SE, None, None, ,  
12/07/2017 06:31, 21, 79, 16 ,4, 7, SE, None, None, ,  
12/07/2017 06:21, 21, 80, 16 ,4, 7, SE, None, None, ,  
12/07/2017 06:11, 21, 80, 16 ,6, 7, SE, None, None, ,  
12/07/2017 06:01, 21, 79, 16 ,4, 6, SE, None, None, ,  
12/07/2017 05:51, 21, 80, 16 ,4, 7, SE, None, None, ,  
12/07/2017 05:47, 21, 79, 15 ,5, 7, SE, None, None, ,  
12/07/2017 05:41, 21, 80, 16 ,3, 6, SE, None, None, ,  
12/07/2017 05:31, 21, 80, 16 ,2, 4, SE, None, None, ,  
12/07/2017 05:21, 21, 79, 15 ,2, 7, S, None, None, ,  
12/07/2017 05:11, 21, 79, 16 ,3, 6, S, None, None, ,  
12/07/2017 05:01, 21, 79, 15 ,5, 7, SE, None, None, ,  
12/07/2017 04:51, 21, 79, 15 ,5, 7, SE, None, None, ,  
12/07/2017 04:45, 21, 79, 15 ,4, 7, SE, None, None, ,  
12/07/2017 04:40, 21, 79, 15 ,6, 7, SE, None, None, ,  
12/07/2017 04:30, 21, 80, 16 ,6, 9, SE, None, None, ,  
12/07/2017 04:20, 21, 79, 15 ,5, 7, SE, None, None, ,  
12/07/2017 04:17, 21, 79, 16 ,5, 7, SE, None, None, ,  
12/07/2017 04:10, 21, 78, 15 ,5, 9, SE, None, None, ,  
12/07/2017 04:00, 21, 79, 15 ,6, 9, SE, None, None, ,  
12/07/2017 03:50, 21, 80, 15 ,6, 9, SE, None, None, ,  
12/07/2017 03:45, 21, 80, 16 ,6, 7, SE, None, None, ,  
12/07/2017 03:40, 21, 80, 15 ,4, 7, SE, None, None, ,  
12/07/2017 03:30, 21, 79, 15 ,6, 9, SE, None, None, ,  
12/07/2017 03:20, 21, 79, 15 ,7, 10, SE, None, None, ,  
12/07/2017 03:10, 21, 79, 15 ,6, 9, SE, None, None, ,  
12/07/2017 03:00, 21, 80, 16 ,5, 9, SE, None, None, ,  
12/07/2017 02:50, 20, 79, 15 ,4, 9, SE, None, None, ,  
12/07/2017 02:48, 21, 80, 15 ,4, 9, SE, None, None, ,  
12/07/2017 02:40, 21, 79, 15 ,4, 7, SE, None, None, ,  
12/07/2017 02:30, 21, 78, 15 ,4, 6, SE, None, None, ,  
12/07/2017 02:20, 21, 78, 15 ,3, 7, SE, None, None, ,  
12/07/2017 02:17, 21, 78, 15 ,5, 7, SE, None, None, ,  
12/07/2017 02:10, 21, 79, 15 ,4, 7, SE, None, None, ,  
12/07/2017 02:00, 21, 80, 16 ,3, 7, SE, None, None, ,  
12/07/2017 01:50, 21, 80, 16 ,5, 8, SE, None, None, ,  
12/07/2017 01:45, 21, 79, 16 ,5, 7, SE, None, None, ,  
12/07/2017 01:39, 21, 79, 16 ,6, 7, SE, None, None, ,  
12/07/2017 01:29, 21, 79, 15 ,4, 10, SE, None, None, ,  
12/07/2017 01:19, 20, 80, 15 ,8, 11, SE, None, None, ,  
12/07/2017 01:15, 20, 79, 15 ,6, 9, SE, None, None, ,  
12/07/2017 01:09, 20, 80, 15 ,7, 11, SE, None, None, ,  
12/07/2017 00:59, 20, 80, 15 ,6, 11, SE, None, None, ,  
12/07/2017 00:49, 20, 80, 15 ,5, 9, SE, None, None, ,  
12/07/2017 00:45, 20, 80, 15 ,4, 9, E, None, None, ,  
12/07/2017 00:39, 20, 80, 15 ,5, 8, SE, None, None, ,  
12/07/2017 00:29, 20, 80, 16 ,6, 12, SE, None, None, ,  
12/07/2017 00:19, 20, 80, 15 ,6, 11, SE, None, None, ,  
12/07/2017 00:15, 20, 80, 15 ,7, 11, SE, None, None, ,  
12/07/2017 00:09, 20, 81, 15 ,6, 9, SE, None, None, ,  
12/06/2017 23:59, 20, 80, 15 ,7, 9, SE, None, None, ,  
12/06/2017 23:49, 20, 80, 15 ,6, 7, SE, None, None, ,  
12/06/2017 23:45, 20, 81, 15 ,6, 8, SE, None, None, ,  
12/06/2017 23:39, 20, 81, 16 ,6, 9, SE, None, None, ,  
12/06/2017 23:29, 20, 81, 16 ,6, 7, SE, None, None, ,  
12/06/2017 23:19, 20, 82, 16 ,5, 6, SE, None, None, ,  
12/06/2017 23:09, 20, 82, 16 ,2, 4, SE, None, None, ,  
12/06/2017 22:59, 21, 82, 16 ,4, 6, SE, None, None, ,  
12/06/2017 22:48, 21, 82, 16 ,4, 6, SE, None, None, ,  
12/06/2017 22:48, 21, 82, 16 ,4, 6, SE, None, None, ,  
12/06/2017 22:38, 21, 82, 16 ,2, 4, SE, None, None, ,  
12/06/2017 22:28, 21, 81, 16 ,4, 6, SE, None, None, ,  
12/06/2017 22:18, 21, 80, 16 ,3, 4, SE, None, None, ,  
12/06/2017 22:17, 21, 80, 16 ,3, 4, SE, None, None, ,  
12/06/2017 22:08, 21, 80, 16 ,1, 4, SE, None, None, ,  
12/06/2017 21:58, 21, 81, 17 ,2, 5, SE, None, None, ,  
12/06/2017 21:48, 21, 81, 16 ,6, 7, SE, None, None, ,  
12/06/2017 21:48, 21, 81, 16 ,6, 7, SE, None, None, ,  
12/06/2017 21:38, 21, 81, 17 ,1, 6, E, None, None, ,  
12/06/2017 21:28, 22, 79, 17 ,2, 4, SE, None, None, ,  
12/06/2017 21:18, 22, 80, 17 ,2, 4, SE, None, None, ,  
12/06/2017 21:08, 22, 79, 17 ,1, 6, E, None, None, ,  
12/06/2017 20:58, 22, 79, 17 ,3, 6, SE, None, None, ,  
12/06/2017 20:48, 22, 79, 17 ,4, 7, SE, None, None, ,  
12/06/2017 20:45, 22, 78, 17 ,6, 7, SE, None, None, ,  
12/06/2017 20:38, 23, 77, 17 ,4, 7, SE, None, None, ,  
12/06/2017 20:28, 22, 81, 18 ,3, 6, SE, None, None, ,  
12/06/2017 20:17, 22, 81, 17 ,0, 3, NW, None, None, ,  
12/06/2017 20:17, 22, 81, 17 ,1, 3, NW, None, None, ,  
12/06/2017 20:07, 23, 80, 18 ,1, 5, E, None, None, ,  
12/06/2017 19:57, 23, 83, 19 ,3, 5, SE, None, None, ,  
12/06/2017 19:47, 22, 86, 18 ,1, 3, S, None, None, ,  
12/06/2017 19:45, 22, 86, 18 ,0, 1, S, None, None, ,  
12/06/2017 19:37, 22, 84, 18 ,0, 0, W, None, None, ,  
12/06/2017 19:27, 22, 84, 19 ,0, 1, W, None, None, ,  
12/06/2017 19:17, 23, 83, 19 ,1, 2, W, None, None, ,  
12/06/2017 19:15, 23, 83, 19 ,0, 2, SW, None, None, ,  
12/06/2017 19:07, 23, 82, 19 ,1, 2, NW, None, None, ,  
12/06/2017 18:57, 25, 79, 19 ,0, 1, S, None, None, ,  
12/06/2017 18:47, 26, 76, 20 ,0, 2, SW, None, None, ,  
12/06/2017 18:45, 26, 77, 20 ,0, 2, W, None, None, ,  
Change End Date:

Copyright © 1998-2015 Vaisala, Inc.
All Rights Reserved
Send comments about the data to:
SCAN Web ® is a registered trademark of Vaisala, Inc.
SCAN Web Version 6.0